Back to catalog

CZ-6A DEB

AlivePO
NORAD 61274·DEBRIS·🇨🇳 China

Launched Aug 6, 2024 from Taiyuan Satellite Launch Center

Loading…

Next Passes (next 24 hours)

TLE

FreshSource: Space-Track

Epoch: Sep 14, 2026, 09:54 UTC

1 61274U 24140SK  26257.41304635  .00002245  00000-0  11758-2 0  9996
2 61274  88.8466 252.8987 0101359 310.0039  49.2281 14.11394575105426

Track CZ-6A DEB in real time with AllMySat

Download on the App Store